When you browse on this site, cookies collect data to enhance your experience and personalize the content and advertising you see.
Visit our Privacy Policy to learn more. By continuing to use the site, you agree to this use of cookies and data.
  • In Lithuania
  • List of Countries
  • For 7 days
  • Water Temperature
  • Satellite Maps
  • Weather Map
  • Weather Widgets
  • user-avatar
    Login

    Hourly Weather Smulsko

    Today, 18 February, Monday

    Time Temperature Precipitation Wind Pressure Humidity
    00:00 +6°C° 0 mm 1 mps 758 mmHg 87%
    01:00 +5°C° 0 mm 1 mps 758 mmHg 88%
    02:00 +5°C° 0 mm 1 mps 757 mmHg 87%
    03:00 +4°C° 0 mm 1 mps 757 mmHg 86%
    04:00 +4°C° 0 mm 1 mps 757 mmHg 86%
    05:00 +4°C° 0 mm 1 mps 757 mmHg 85%
    06:00 +3°C° 0 mm 2 mps 757 mmHg 85%
    07:00 +3°C° 0 mm 1 mps 757 mmHg 83%
    08:00 +3°C° 0 mm 2 mps 757 mmHg 78%
    09:00 +4°C° 0 mm 2 mps 757 mmHg 73%
    10:00 +6°C° 0 mm 2 mps 756 mmHg 68%
    11:00 +7°C° 0 mm 2 mps 756 mmHg 64%
    12:00 +8°C° 0 mm 2 mps 756 mmHg 59%
    13:00 +10°C° 0 mm 2 mps 756 mmHg 52%
    14:00 +10°C° 0 mm 2 mps 755 mmHg 54%
    15:00 +9°C° 0 mm 2 mps 755 mmHg 56%
    16:00 +9°C° 0 mm 2 mps 754 mmHg 57%
    17:00 +8°C° 0 mm 2 mps 754 mmHg 60%
    18:00 +7°C° 0 mm 2 mps 754 mmHg 63%
    19:00 +6°C° 0 mm 2 mps 754 mmHg 66%
    20:00 +5°C° 0 mm 3 mps 754 mmHg 67%
    21:00 +4°C° 0 mm 3 mps 754 mmHg 69%
    22:00 +4°C° 0 mm 3 mps 753 mmHg 70%
    23:00 +4°C° 0 mm 3 mps 753 mmHg 73%

    Tomorrow, 19 February, Tuesday

    Time Temperature Precipitation Wind Pressure Humidity
    00:00 +3°C° 0 mm 3 mps 753 mmHg 75%
    01:00 +3°C° 0 mm 3 mps 753 mmHg 78%
    02:00 +2°C° 0 mm 3 mps 753 mmHg 78%
    03:00 +2°C° 0 mm 3 mps 752 mmHg 78%
    04:00 +1°C° 0 mm 3 mps 752 mmHg 78%
    05:00 0°C° 0 mm 4 mps 752 mmHg 79%
    06:00 0°C° 0 mm 4 mps 751 mmHg 79%
    07:00 0°C° 0 mm 4 mps 751 mmHg 80%
    08:00 +1°C° 0 mm 4 mps 751 mmHg 74%
    09:00 +4°C° 0 mm 4 mps 751 mmHg 68%
    10:00 +5°C° 0 mm 5 mps 751 mmHg 62%
    11:00 +6°C° 0 mm 5 mps 750 mmHg 58%
    12:00 +8°C° 0 mm 5 mps 750 mmHg 54%
    13:00 +9°C° 0 mm 6 mps 750 mmHg 50%
    14:00 +9°C° 0 mm 5 mps 750 mmHg 53%
    15:00 +9°C° 0 mm 5 mps 750 mmHg 56%
    16:00 +10°C° 0 mm 4 mps 750 mmHg 60%
    17:00 +8°C° 0.1 mm 5 mps 750 mmHg 66%
    18:00 +7°C° 0.1 mm 5 mps 750 mmHg 72%
    19:00 +7°C° 0.1 mm 5 mps 750 mmHg 78%
    20:00 +6°C° 0.1 mm 5 mps 750 mmHg 81%
    21:00 +5°C° 0.1 mm 5 mps 750 mmHg 85%
    22:00 +5°C° 0.1 mm 5 mps 750 mmHg 88%
    23:00 +3°C° 0 mm 5 mps 751 mmHg 86%

    Day after tomorrow, 20 February, Wednesday

    Time Temperature Precipitation Wind Pressure Humidity
    00:00 +3°C° 0 mm 5 mps 751 mmHg 85%
    01:00 +3°C° 0 mm 6 mps 751 mmHg 84%
    02:00 +2°C° 0 mm 6 mps 751 mmHg 86%
    03:00 +2°C° 0 mm 6 mps 751 mmHg 87%
    04:00 +2°C° 0 mm 6 mps 751 mmHg 89%
    05:00 +2°C° 0 mm 6 mps 752 mmHg 88%
    06:00 +2°C° 0 mm 6 mps 752 mmHg 87%
    07:00 +2°C° 0 mm 6 mps 752 mmHg 86%
    08:00 +3°C° 0.1 mm 6 mps 753 mmHg 83%
    09:00 +3°C° 0.1 mm 7 mps 753 mmHg 80%
    10:00 +3°C° 0.1 mm 7 mps 753 mmHg 77%
    11:00 +4°C° 0.1 mm 7 mps 754 mmHg 75%
    12:00 +4°C° 0.1 mm 7 mps 754 mmHg 73%
    13:00 +4°C° 0.1 mm 7 mps 754 mmHg 71%
    14:00 +4°C° 0 mm 7 mps 754 mmHg 71%
    15:00 +4°C° 0 mm 7 mps 754 mmHg 72%
    16:00 +4°C° 0 mm 6 mps 754 mmHg 72%
    17:00 +5°C° 0 mm 5 mps 755 mmHg 75%
    18:00 +5°C° 0 mm 5 mps 755 mmHg 77%
    19:00 +4°C° 0 mm 4 mps 755 mmHg 80%
    20:00 +4°C° 0 mm 4 mps 755 mmHg 82%
    21:00 +4°C° 0 mm 4 mps 756 mmHg 85%
    22:00 +4°C° 0 mm 4 mps 756 mmHg 88%
    23:00 +4°C° 0 mm 4 mps 756 mmHg 88%

    21 February, Thursday

    Time Temperature Precipitation Wind Pressure Humidity
    00:00 +4°C° 0 mm 4 mps 756 mmHg 89%
    01:00 +4°C° 0 mm 4 mps 756 mmHg 90%
    02:00 +4°C° 0.1 mm 4 mps 756 mmHg 89%
    03:00 +4°C° 0.1 mm 4 mps 755 mmHg 87%
    04:00 +3°C° 0.1 mm 4 mps 755 mmHg 86%
    05:00 +3°C° 0.3 mm 5 mps 755 mmHg 87%
    06:00 +3°C° 0.3 mm 5 mps 755 mmHg 88%
    07:00 +3°C° 0.3 mm 6 mps 755 mmHg 89%
    08:00 +3°C° 0.2 mm 6 mps 755 mmHg 89%
    09:00 +4°C° 0.2 mm 6 mps 754 mmHg 88%
    10:00 +4°C° 0.2 mm 6 mps 754 mmHg 88%
    11:00 +4°C° 0.9 mm 6 mps 754 mmHg 88%
    12:00 +4°C° 0.9 mm 6 mps 754 mmHg 88%
    13:00 +5°C° 0.9 mm 7 mps 754 mmHg 88%
    14:00 +5°C° 0.1 mm 7 mps 754 mmHg 89%
    15:00 +5°C° 0.1 mm 7 mps 754 mmHg 89%
    16:00 +5°C° 0.1 mm 7 mps 754 mmHg 89%
    17:00 +5°C° 0.1 mm 6 mps 755 mmHg 90%
    18:00 +5°C° 0.1 mm 6 mps 755 mmHg 90%
    19:00 +5°C° 0.1 mm 6 mps 756 mmHg 91%
    20:00 +5°C° 0 mm 6 mps 756 mmHg 90%
    21:00 +4°C° 0 mm 6 mps 757 mmHg 89%
    22:00 +4°C° 0 mm 6 mps 757 mmHg 88%
    23:00 +3°C° 0.1 mm 6 mps 758 mmHg 87%

    22 February, Friday

    Time Temperature Precipitation Wind Pressure Humidity
    00:00 +3°C° 0.1 mm 6 mps 759 mmHg 85%
    01:00 +2°C° 0.1 mm 6 mps 759 mmHg 84%
    02:00 +1°C° 0 mm 5 mps 760 mmHg 82%
    03:00 0°C° 0 mm 5 mps 761 mmHg 79%
    04:00 0°C° 0 mm 4 mps 762 mmHg 77%
    05:00 -1°C° 0 mm 4 mps 763 mmHg 75%
    06:00 -2°C° 0 mm 4 mps 764 mmHg 73%
    07:00 -2°C° 0 mm 4 mps 765 mmHg 71%
    08:00 -2°C° 0 mm 4 mps 765 mmHg 65%
    09:00 -2°C° 0 mm 4 mps 766 mmHg 59%
    10:00 -1°C° 0 mm 4 mps 767 mmHg 53%
    11:00 -1°C° 0 mm 4 mps 768 mmHg 51%
    12:00 0°C° 0 mm 4 mps 768 mmHg 49%
    13:00 0°C° 0 mm 4 mps 769 mmHg 47%
    14:00 0°C° 0 mm 4 mps 769 mmHg 46%
    15:00 +1°C° 0 mm 3 mps 769 mmHg 45%
    16:00 +1°C° 0 mm 3 mps 770 mmHg 44%
    17:00 0°C° 0 mm 3 mps 770 mmHg 48%
    18:00 -1°C° 0 mm 3 mps 771 mmHg 51%
    19:00 -2°C° 0 mm 2 mps 771 mmHg 55%
    20:00 -2°C° 0 mm 2 mps 772 mmHg 54%
    21:00 -2°C° 0 mm 2 mps 772 mmHg 54%
    22:00 -2°C° 0 mm 2 mps 772 mmHg 53%
    23:00 -2°C° 0 mm 2 mps 772 mmHg 52%

    23 February, Saturday

    Time Temperature Precipitation Wind Pressure Humidity
    00:00 -2°C° 0 mm 2 mps 772 mmHg 51%
    01:00 -2°C° 0 mm 2 mps 772 mmHg 50%
    02:00 -2°C° 0 mm 2 mps 772 mmHg 51%
    03:00 -2°C° 0 mm 2 mps 771 mmHg 51%
    04:00 -2°C° 0 mm 2 mps 771 mmHg 51%
    05:00 -2°C° 0 mm 2 mps 771 mmHg 51%
    06:00 -2°C° 0 mm 2 mps 771 mmHg 52%
    07:00 -2°C° 0 mm 2 mps 770 mmHg 52%
    08:00 -1°C° 0 mm 2 mps 770 mmHg 47%
    09:00 0°C° 0 mm 3 mps 770 mmHg 43%
    10:00 +1°C° 0 mm 3 mps 770 mmHg 39%
    11:00 +2°C° 0 mm 3 mps 769 mmHg 37%
    12:00 +1°C° 0 mm 4 mps 768 mmHg 36%
    13:00 +3°C° 0 mm 4 mps 768 mmHg 35%
    14:00 +3°C° 0 mm 4 mps 767 mmHg 39%
    15:00 +3°C° 0 mm 4 mps 767 mmHg 43%
    16:00 +3°C° 0 mm 3 mps 766 mmHg 47%
    17:00 +3°C° 0 mm 3 mps 766 mmHg 54%
    18:00 +2°C° 0 mm 3 mps 766 mmHg 60%
    19:00 +2°C° 0 mm 3 mps 766 mmHg 67%
    20:00 +2°C° 0 mm 3 mps 766 mmHg 74%
    21:00 +2°C° 0 mm 3 mps 766 mmHg 80%
    22:00 +2°C° 0 mm 3 mps 766 mmHg 87%
    23:00 +2°C° 0 mm 3 mps 766 mmHg 90%
    Show more